[[{"header":{"parameterUnit":"m.s-1","parameterCategory":1,"la1":30.2991,"la2":30.254,"lo1":-89.0895,"lo2":-89.0444,"dy":0.0017,"dx":0.0017,"nx":28,"ny":28,"refTime":"2025-05-31T03:00:00:Z","depth":0,"parameterNumber":2,"parameterNumberName":"U-component_of_WINDS"},"data":[0,0,0,0,0,0,0,0,0,0,0,0,0,0,0,0,0,0,0,0,0,0,0,0,0,0,0,0,0,0,0,0,0,0,0,0,0,0,0,0,0,0,0,0,0,0,0,0,0,0,0,0,0,0,0,0,0,0,-1.8484,-1.8484,0,-1.8492,-1.8492,-1.8492,-1.8376,-1.8373,-1.8369,-1.8366,-1.8379,-1.8382,-1.8385,0,0,0,0,0,0,0,0,0,0,0,0,0,-1.8371,-1.8374,-1.8484,-1.8484,-1.8484,-1.8492,-1.8492,-1.8492,-1.8376,-1.8372,-1.8369,-1.8365,-1.8378,-1.8382,-1.8385,0,0,0,0,0,0,0,0,0,0,0,0,0,-1.8404,-1.8375,-1.8484,-1.8427,-1.8422,-1.8492,-1.8492,-1.8492,-1.8377,-1.8372,-1.8368,-1.8363,-1.8376,-1.8381,-1.8386,-1.8512,0,0,-1.8401,-1.8403,0,0,0,0,0,0,0,0,-1.8402,-1.8408,-1.8435,-1.8431,-1.8426,-1.8428,-1.8456,-1.8499,-1.8378,-1.8394,-1.8366,-1.8361,-1.8399,-1.8402,-1.8414,-1.8512,-1.8513,-1.8402,-1.8405,-1.8407,-1.8408,0,0,0,0,0,0,0,-1.84,-1.8407,-1.8487,-1.8436,-1.843,-1.8402,-1.8402,-1.8464,-1.8424,-1.8393,-1.8384,-1.8386,-1.8396,-1.841,-1.8413,-1.8513,-1.8401,-1.8406,-1.8409,-1.8411,-1.8713,-1.8718,0,0,0,0,0,0,-1.8405,-1.8406,-1.8487,-1.8487,-1.8402,-1.8408,-1.8407,-1.8432,-1.8422,-1.8416,-1.8391,-1.8381,-1.8403,-1.8408,-1.8413,-1.856,-1.8407,-1.8411,-1.8414,-1.8708,-1.8715,-1.872,0,0,0,0,0,0,-1.8403,-1.8413,-1.8487,-1.8444,-1.8452,-1.8415,-1.8444,-1.8435,-1.8448,-1.8421,-1.8413,-1.8412,-1.84,-1.8407,-1.8488,-1.8559,-1.8413,-1.8418,-1.8702,-1.871,-1.8717,-1.8854,0,0,0,0,0,0,-1.84,-1.8413,-1.8461,-1.8446,-1.8454,-1.8561,-1.8448,-1.8438,-1.8457,-1.8444,-1.8439,-1.8434,-1.8397,-1.8481,-1.8492,-1.8563,-1.8422,-1.8696,-1.8706,-1.8715,-1.8843,-1.8865,-1.8884,0,0,0,0,0,-1.8397,-1.85,-1.8464,-1.8474,-1.8512,-1.8565,-1.8569,-1.8524,-1.8463,-1.851,-1.8492,-1.8434,-1.8548,-1.849,-1.8502,-1.8575,-1.8691,-1.8703,-1.8714,-1.8834,-1.8861,-1.8884,0,0,0,0,0,0,-1.8526,-1.8497,-1.8457,-1.8558,-1.8564,-1.8545,-1.8604,-1.8554,-1.8579,-1.8567,-1.851,-1.851,-1.86,-1.8595,-1.8531,-1.8695,-1.8609,-1.8624,-1.8696,-1.8722,-1.8742,-1.8742,-1.8426,0,0,0,0,0,-1.8565,-1.8609,-1.8582,-1.8674,-1.8679,-1.8641,-1.8662,-1.8626,-1.8631,-1.8634,-1.8622,-1.863,-1.8667,-1.8694,-1.8727,-1.884,-1.8838,-1.8896,-1.8917,-1.8934,-1.8948,-1.9008,-1.9034,-1.8758,-1.8758,-1.8757,0,0,-1.8649,-1.8639,-1.867,-1.87,-1.8701,-1.8748,-1.8644,-1.87,-1.8735,-1.8643,-1.8718,-1.871,-1.8715,-1.8813,-1.8855,-1.8811,-1.9023,-1.8949,-1.8963,-1.8967,-1.9022,-1.9048,-1.9072,-1.8765,-1.8764,-1.8763,0,0,-1.8826,-1.8822,-1.8898,-1.89,-1.8902,-1.8875,-1.8893,-1.8881,-1.8871,-1.8945,-1.8877,-1.8918,-1.8984,-1.8991,-1.9003,-1.9179,-1.9127,-1.9191,-1.9301,-1.9359,-1.9381,-1.94,-1.9464,-1.9487,-1.9205,-1.9205,-1.9205,0,-1.893,-1.8998,-1.8944,-1.9003,-1.9018,-1.8934,-1.9011,-1.9016,-1.903,-1.9042,-1.8992,-1.9072,-1.907,-1.9168,-1.9211,-1.9223,-1.9243,-1.9193,-1.9382,-1.94,-1.9417,-1.9478,-1.9502,-1.9213,-1.9212,-1.9211,-1.921,0,-1.9127,-1.9175,-1.9236,-1.9249,-1.927,-1.9339,-1.9295,-1.9323,-1.9284,-1.9263,-1.934,-1.9333,-1.9363,-1.9383,-1.9347,-1.9476,-1.9449,-1.9391,-1.9304,-1.9453,-1.9508,-1.9531,-1.9224,-1.9221,-1.9219,-1.9217,0,0,-1.9389,-1.9368,-1.9391,-1.9396,-1.939,-1.9427,-1.949,-1.9518,-1.9544,-1.9555,-1.9608,-1.9664,-1.961,-1.9623,-1.9586,-1.9638,-1.9778,-1.9573,-1.9572,-1.9613,-1.9921,-1.9966,-1.9994,-1.9742,-1.9746,-1.9749,-1.9921,0,-1.9561,-1.9668,-1.962,-1.9732,-1.9776,-1.9695,-1.9751,-1.9754,-1.9735,-1.977,-1.9749,-1.9791,-1.9716,-1.9723,-1.977,-1.9751,-1.984,-1.9738,-1.9792,-1.9795,-1.9795,-2.0022,-2.007,-2.0233,-1.9942,-1.9946,-1.9948,0,-1.9778,-1.9796,-1.9913,-1.9897,-1.9914,-1.9965,-1.9985,-2.0019,-2.0021,-2.0003,-2.0017,-1.9968,-2.003,-1.9941,-2.0025,-1.9957,-1.9976,-1.997,-1.9975,-1.998,-1.9882,-2.0035,-2.0283,-2.0308,-1.9982,-1.9979,-1.9977,0,-1.9959,-2.0012,-2.0088,-2.0094,-2.0078,-2.0116,-2.0111,-2.0107,-2.0126,-2.0144,-2.0156,-2.0182,-2.0197,-2.0218,-2.0177,-2.0116,-2.0268,-2.0175,-2.0256,-2.0258,-2.0294,-2.0293,-2.0551,-2.0304,-2.0303,-2.0303,-2.0302,0,-2.0158,-2.0233,-2.0169,-2.0216,-2.0297,-2.024,-2.0323,-2.0309,-2.0306,-2.035,-2.0281,-2.0324,-2.0266,-2.0304,-2.0272,-2.0347,-2.0354,-2.0342,-2.0334,-2.035,-2.0352,-2.0363,-2.0352,-2.0309,-2.0308,-2.0307,-2.0306,0,-2.0375,-2.0335,-2.0413,-2.039,-2.0386,-2.0447,-2.0428,-2.0471,-2.0446,-2.0502,-2.0512,-2.0474,-2.0514,-2.0474,-2.0512,-2.049,-2.0592,-2.0565,-2.0591,-2.0585,-2.0668,-2.0662,-2.0944,-2.0978,-2.0708,-2.0711,-2.0713,0,-2.0506,-2.0561,-2.0543,-2.0567,-2.0566,-2.0605,-2.0623,-2.0568,-2.0591,-2.0595,-2.0638,-2.0671,-2.0696,-2.0763,-2.074,-2.0768,-2.0743,-2.084,-2.0747,-2.0762,-2.0746,-2.0744,-2.075,-2.086,-2.0863,-2.0866,-2.0868,0,-2.0743,-2.072,-2.0748,-2.0769,-2.0793,-2.0807,-2.0817,-2.084,-2.0783,-2.0812,-2.0851,-2.087,-2.0907,-2.0942,-2.0962,-2.0958,-2.0905,-2.0897,-2.0917,-2.0936,-2.0949,-2.0944,-2.0645,-2.0891,-2.0889,-2.0887,-2.0886,-2.0885,-2.0922,-2.0967,-2.0961,-2.0994,-2.0995,-2.1005,-2.1044,-2.1022,-2.1054,-2.1079,-2.1044,-2.1093,-2.1091,-2.1113,-2.1115,-2.1153,-2.1112,-2.1142,-2.1149,-2.1158,-2.1171,-2.0941,-2.1156,-2.1155,-2.1155,-2.1154,-2.1154,0,-2.1156,-2.1148,-2.1179,-2.1193,-2.1219,-2.1163,-2.117,-2.1197,-2.1239,-2.1242,-2.1266,-2.131,-2.1343,-2.1321,-2.1348,-2.1383,-2.1359,-2.1392,-2.139,-2.139,-2.1205,-2.1185,-2.1411,-2.1411,-2.1411,-2.1411,-2.1411,-2.1411,-2.1282,-2.1355,-2.1331,-2.1403,-2.1394,-2.1439,-2.1448,-2.1457,-2.1458,-2.1511,-2.1536,-2.152,-2.1513,-2.1539,-2.1567,-2.1559,-2.1573,-2.1616,-2.16,-2.1428,-2.1403,-2.1379,-2.136,-2.1619,-2.1619,-2.1782,-2.1783,-2.1784]},{"header":{"parameterUnit":"m.s-1","parameterCategory":1,"la1":30.2991,"la2":30.254,"lo1":-89.0895,"lo2":-89.0444,"dy":0.0017,"dx":0.0017,"nx":28,"ny":28,"refTime":"2025-05-31T03:00:00:Z","depth":0,"parameterNumber":3,"parameterNumberName":"V-component_of_WINDS"},"data":[0,0,0,0,0,0,0,0,0,0,0,0,0,0,0,0,0,0,0,0,0,0,0,0,0,0,0,0,0,0,0,0,0,0,0,0,0,0,0,0,0,0,0,0,0,0,0,0,0,0,0,0,0,0,0,0,0,0,-5.019,-5.0191,0,-5.0248,-5.0249,-5.0249,-5.0168,-5.0166,-5.0163,-5.016,-5.0216,-5.022,-5.0224,0,0,0,0,0,0,0,0,0,0,0,0,0,-5.0006,-5.001,-5.019,-5.0191,-5.0192,-5.0248,-5.0249,-5.025,-5.0169,-5.0165,-5.0162,-5.0159,-5.0214,-5.0219,-5.0224,0,0,0,0,0,0,0,0,0,0,0,0,0,-5.0077,-5.0011,-5.019,-5.0158,-5.0156,-5.0248,-5.0249,-5.025,-5.017,-5.0165,-5.0161,-5.0157,-5.0213,-5.0219,-5.0225,-5.035,0,0,-5.0244,-5.0247,0,0,0,0,0,0,0,0,-5.0073,-5.0084,-5.0162,-5.0161,-5.0158,-5.0197,-5.0204,-5.0283,-5.0171,-5.0164,-5.016,-5.0155,-5.0213,-5.0219,-5.0239,-5.0352,-5.0354,-5.0245,-5.0248,-5.0251,-5.0253,0,0,0,0,0,0,0,-5.0068,-5.0081,-5.0213,-5.0164,-5.0161,-5.014,-5.0145,-5.0219,-5.0212,-5.0165,-5.0159,-5.0167,-5.0211,-5.0233,-5.0239,-5.0355,-5.0244,-5.025,-5.0254,-5.0256,-5.0571,-5.0576,0,0,0,0,0,0,-5.0068,-5.0077,-5.0211,-5.0215,-5.0104,-5.0147,-5.0153,-5.0189,-5.0211,-5.021,-5.0171,-5.0163,-5.0224,-5.0232,-5.0241,-5.0387,-5.0251,-5.0257,-5.026,-5.0567,-5.0572,-5.0577,0,0,0,0,0,0,-5.0064,-5.008,-5.0209,-5.0145,-5.0159,-5.0154,-5.0196,-5.0192,-5.0214,-5.0215,-5.0213,-5.0195,-5.0221,-5.0232,-5.0323,-5.0388,-5.026,-5.0265,-5.0561,-5.0568,-5.0575,-5.0681,0,0,0,0,0,0,-5.0059,-5.008,-5.0128,-5.0146,-5.0163,-5.0292,-5.02,-5.0196,-5.0226,-5.0216,-5.0238,-5.0237,-5.0219,-5.0314,-5.0329,-5.0394,-5.027,-5.0555,-5.0565,-5.0573,-5.0672,-5.0691,-5.0707,0,0,0,0,0,-5.0053,-5.0155,-5.0131,-5.0148,-5.0224,-5.0296,-5.0305,-5.0283,-5.0231,-5.0279,-5.0279,-5.0236,-5.0379,-5.0324,-5.034,-5.0408,-5.0551,-5.0562,-5.0572,-5.0664,-5.0687,-5.0707,0,0,0,0,0,0,-5.0144,-5.0157,-5.013,-5.0242,-5.0269,-5.0282,-5.0341,-5.0308,-5.0349,-5.0338,-5.0308,-5.0313,-5.041,-5.0418,-5.0357,-5.0529,-5.0456,-5.047,-5.052,-5.0542,-5.056,-5.0555,-5.0275,0,0,0,0,0,-5.0177,-5.0236,-5.0244,-5.0341,-5.0356,-5.0347,-5.0377,-5.0358,-5.0383,-5.0394,-5.0401,-5.0426,-5.0476,-5.051,-5.0556,-5.0672,-5.0675,-5.0727,-5.0745,-5.0759,-5.0772,-5.0832,-5.0855,-5.0612,-5.0612,-5.0611,0,0,-5.0247,-5.0261,-5.03,-5.036,-5.0378,-5.0438,-5.0357,-5.0423,-5.0467,-5.0403,-5.0489,-5.0495,-5.0521,-5.0625,-5.0671,-5.0635,-5.0839,-5.0772,-5.0784,-5.0789,-5.0845,-5.0868,-5.0889,-5.0619,-5.0617,-5.0616,0,0,-5.0403,-5.042,-5.0503,-5.0523,-5.0551,-5.0544,-5.0564,-5.0582,-5.0584,-5.067,-5.0623,-5.0674,-5.0761,-5.0781,-5.0803,-5.0965,-5.0926,-5.0981,-5.1073,-5.1132,-5.1152,-5.1168,-5.1225,-5.1246,-5.0993,-5.0994,-5.0994,0,-5.0485,-5.0574,-5.055,-5.062,-5.0647,-5.0593,-5.0675,-5.0695,-5.0737,-5.0756,-5.0715,-5.0823,-5.0836,-5.0943,-5.0983,-5.1003,-5.1023,-5.0978,-5.1151,-5.1168,-5.1183,-5.1237,-5.1258,-5.1,-5.0999,-5.0999,-5.0998,0,-5.0673,-5.0735,-5.0798,-5.0841,-5.0875,-5.0951,-5.0936,-5.0974,-5.0951,-5.0948,-5.1035,-5.1049,-5.1097,-5.1121,-5.1099,-5.1225,-5.1201,-5.1156,-5.1082,-5.1213,-5.1263,-5.1283,-5.1009,-5.1007,-5.1005,-5.1003,0,0,-5.0889,-5.0916,-5.094,-5.0958,-5.0985,-5.1031,-5.1104,-5.1151,-5.1183,-5.1214,-5.1272,-5.1347,-5.1305,-5.133,-5.131,-5.1362,-5.1488,-5.131,-5.1311,-5.1342,-5.1625,-5.1658,-5.1682,-5.1463,-5.1467,-5.147,-5.1622,0,-5.1044,-5.1171,-5.115,-5.1272,-5.1328,-5.1277,-5.134,-5.1362,-5.1361,-5.1407,-5.1405,-5.1458,-5.14,-5.1414,-5.1463,-5.1463,-5.1544,-5.1451,-5.1516,-5.1518,-5.151,-5.1709,-5.1744,-5.1887,-5.1642,-5.1645,-5.1647,0,-5.1242,-5.128,-5.1408,-5.1425,-5.1448,-5.1505,-5.1546,-5.1591,-5.1615,-5.161,-5.1637,-5.1607,-5.1677,-5.1603,-5.1698,-5.1635,-5.166,-5.1664,-5.1669,-5.1673,-5.159,-5.1717,-5.1933,-5.1954,-5.1678,-5.1676,-5.1673,0,-5.1385,-5.1469,-5.1555,-5.1573,-5.1595,-5.1636,-5.1646,-5.1666,-5.1695,-5.173,-5.1749,-5.1791,-5.1815,-5.1848,-5.1829,-5.1777,-5.1927,-5.1852,-5.1924,-5.1924,-5.1957,-5.1955,-5.2179,-5.1975,-5.1975,-5.1975,-5.1974,0,-5.156,-5.164,-5.162,-5.1674,-5.1761,-5.1735,-5.1822,-5.1826,-5.1844,-5.1896,-5.1854,-5.1903,-5.1876,-5.1923,-5.1909,-5.1989,-5.2,-5.1997,-5.1992,-5.2001,-5.2001,-5.2016,-5.2005,-5.198,-5.1979,-5.1978,-5.1977,0,-5.1735,-5.1725,-5.1816,-5.1829,-5.1834,-5.1898,-5.1908,-5.1957,-5.1952,-5.2019,-5.2033,-5.2025,-5.2078,-5.2062,-5.212,-5.211,-5.2211,-5.2194,-5.2204,-5.2199,-5.2272,-5.2265,-5.2512,-5.2543,-5.232,-5.2322,-5.2324,0,-5.1847,-5.1907,-5.1927,-5.1959,-5.1974,-5.2026,-5.2056,-5.2033,-5.2065,-5.2095,-5.214,-5.219,-5.2228,-5.2314,-5.2313,-5.2356,-5.2338,-5.2422,-5.2344,-5.235,-5.2338,-5.2334,-5.234,-5.2437,-5.244,-5.2442,-5.2444,0,-5.2046,-5.2038,-5.2083,-5.2127,-5.2163,-5.2196,-5.2224,-5.2253,-5.2231,-5.2269,-5.2323,-5.2353,-5.2411,-5.246,-5.2499,-5.2508,-5.2472,-5.2468,-5.2487,-5.2496,-5.2498,-5.2496,-5.2245,-5.2462,-5.2461,-5.2459,-5.2458,-5.2457,-5.2192,-5.2243,-5.2265,-5.2316,-5.2335,-5.2362,-5.2408,-5.2409,-5.2454,-5.25,-5.2483,-5.2545,-5.2565,-5.2614,-5.2628,-5.2674,-5.2642,-5.267,-5.2676,-5.2683,-5.2692,-5.2492,-5.2681,-5.2681,-5.268,-5.268,-5.2679,0,-5.2388,-5.24,-5.2447,-5.2488,-5.2528,-5.2492,-5.2521,-5.2556,-5.2611,-5.2634,-5.2672,-5.2733,-5.278,-5.2782,-5.2825,-5.2862,-5.2846,-5.2874,-5.287,-5.2873,-5.2719,-5.2698,-5.2886,-5.2886,-5.2886,-5.2886,-5.2885,-5.2885,-5.2495,-5.2579,-5.2573,-5.2664,-5.2674,-5.2735,-5.2755,-5.2779,-5.2796,-5.2867,-5.2906,-5.2907,-5.2921,-5.2964,-5.3005,-5.3004,-5.3021,-5.3055,-5.3048,-5.2904,-5.2884,-5.2864,-5.2844,-5.306,-5.306,-5.3198,-5.3199,-5.32]}]]